SCP
0 0 0 0 0 0 0 0 0 0 0 0 0 0 0 -0 -0 0 -0 0 0 0
0 0 0 0 0 0 0 0 0 0 0 0 0 0 0 -0 0 0 -0 0 0 0
0 0 0 0 0 0 0 0 0 0 0 0 0 0 0 0 0 0 0 -0 0 0
0 0 0 0 0 0 0 0 0 0 0 0 0 0 0 0 0 0 0 0 0 0
0 0 0 0 0 0 0 0 0 0 0 0 0 0 0 0 0 0 0 0 0 0
0 0 0 0 0 0 0 0 0 0 0 0 0 0 0 0 0 0 0 0 0 0
0 0 0 0 0 0 0 0 0 0 0 0 0 0 0 0 0 0 0 0 0 0
0 0 0 0 0 0 0 0 0 0 0 0 0 0 0 0 0 0 0 0 0 0
0 0 0 0 0 0 0 0 0 0 0 0 0 0 -0 -0 0 0 0 0 0 0
0 0 0 0 0 0 0 0 0 0 0 0 0 0 -0 -0 0 0 0 0 0 0
0 0 0 0 0 0 0 0 0 0 0 0 0 0 0 -0 0 0 0 0 0 0
0 0 0 0 0 0 0 0 0 0 0 0 0 0 0 0 0 0 0 0 0 0
0 0 0 0 0 0 0 0 0 0 0 0 0 0 0 0 0 0 0 0 0 0
0 0 0 0 0 0 0 0 0 0 0 0 0 0 0 0 0 0 0 0 0 0
Wind_Speed_500mb
36 37 40 43 43 44 45 45 43 44 45 47 45 46 48 49 53 47 46 52 54 57
39 39 42 44 45 46 44 43 39 39 40 43 44 45 46 49 51 53 43 46 55 59
41 42 45 46 46 47 46 42 40 36 35 36 41 43 43 45 49 52 52 42 48 55
36 37 41 45 47 47 46 42 39 36 32 32 34 39 41 41 44 50 52 45 43 49
33 36 41 45 47 49 48 45 37 32 29 28 28 31 37 40 40 46 51 50 41 44
30 36 42 46 48 49 48 46 39 31 27 25 25 26 31 36 36 38 44 48 46 40
28 36 43 46 48 48 47 45 40 32 25 21 21 23 26 31 33 32 36 42 45 45
27 36 40 43 45 46 46 43 39 34 26 19 16 25 30 27 27 31 30 34 40 45
26 33 38 41 43 43 42 41 38 32 28 24 18 31 31 25 22 26 29 31 35 42
23 30 35 38 40 41 42 40 37 32 29 26 23 29 36 25 20 25 25 28 31 37
20 27 31 35 37 40 41 41 40 36 32 28 26 31 36 30 21 20 23 25 27 31
15 21 26 29 33 37 40 41 43 42 40 35 28 29 33 35 24 19 21 24 23 25
10 16 22 28 32 35 38 41 42 44 45 42 33 25 36 38 31 24 21 20 20 21
7 13 20 24 28 30 33 35 39 42 45 46 45 39 42 38 35 30 25 22 19 21
Wind_Direction_500mb
342 339 341 340 339 338 341 348 355 2 7 9 6 7 10 14 18 18 17 11 9 12
336 334 335 331 327 324 326 330 338 347 358 7 8 7 7 13 16 20 15 16 9 12
337 338 338 337 333 327 320 315 319 329 343 357 6 8 8 9 14 16 19 16 15 8
343 351 348 347 344 342 340 329 311 315 330 343 356 5 10 10 13 15 16 17 19 9
351 354 351 350 348 348 348 343 331 312 316 331 342 356 7 10 14 14 15 18 15 16
355 357 356 353 352 352 351 347 345 332 320 328 337 346 357 10 12 17 17 17 20 13
359 2 359 357 355 356 355 349 350 348 337 332 337 341 347 1 6 16 17 19 23 19
5 6 3 358 358 359 356 352 352 353 350 342 345 351 348 349 356 3 11 15 18 26
10 11 6 2 1 2 359 358 356 358 1 360 356 6 0 347 347 351 1 6 13 16
15 14 10 7 6 6 6 6 5 4 7 9 1 14 7 347 343 344 349 358 4 14
19 18 15 12 11 13 14 13 14 11 9 9 9 24 11 359 352 347 349 348 0 4
27 22 20 19 19 21 22 22 21 18 13 11 13 30 11 360 356 348 348 341 1 360
34 25 28 23 24 28 30 31 29 26 23 20 17 22 10 4 355 347 345 339 357 1
52 28 33 31 30 29 32 34 35 33 29 27 22 20 13 10 354 350 344 337 342 1
Wind_Speed_850mb
36 37 40 43 43 44 45 45 43 44 45 47 45 46 48 49 53 47 46 52 54 57
39 39 42 44 45 46 44 43 39 39 40 43 44 45 46 49 51 53 43 46 55 59
41 42 45 46 46 47 46 42 40 36 35 36 41 43 43 45 49 52 52 42 48 55
36 37 41 45 47 47 46 42 39 36 32 32 34 39 41 41 44 50 52 45 43 49
33 36 41 45 47 49 48 45 37 32 29 28 28 31 37 40 40 46 51 50 41 44
30 36 42 46 48 49 48 46 39 31 27 25 25 26 31 36 36 38 44 48 46 40
28 36 43 46 48 48 47 45 40 32 25 21 21 23 26 31 33 32 36 42 45 45
27 36 40 43 45 46 46 43 39 34 26 19 16 25 30 27 27 31 30 34 40 45
26 33 38 41 43 43 42 41 38 32 28 24 18 31 31 25 22 26 29 31 35 42
23 30 35 38 40 41 42 40 37 32 29 26 23 29 36 25 20 25 25 28 31 37
20 27 31 35 37 40 41 41 40 36 32 28 26 31 36 30 21 20 23 25 27 31
15 21 26 29 33 37 40 41 43 42 40 35 28 29 33 35 24 19 21 24 23 25
10 16 22 28 32 35 38 41 42 44 45 42 33 25 36 38 31 24 21 20 20 21
7 13 20 24 28 30 33 35 39 42 45 46 45 39 42 38 35 30 25 22 19 21
Wind_Direction_850mb
342 339 341 340 339 338 341 348 355 2 7 9 6 7 10 14 18 18 17 11 9 12
336 334 335 331 327 324 326 330 338 347 358 7 8 7 7 13 16 20 15 16 9 12
337 338 338 337 333 327 320 315 319 329 343 357 6 8 8 9 14 16 19 16 15 8
343 351 348 347 344 342 340 329 311 315 330 343 356 5 10 10 13 15 16 17 19 9
351 354 351 350 348 348 348 343 331 312 316 331 342 356 7 10 14 14 15 18 15 16
355 357 356 353 352 352 351 347 345 332 320 328 337 346 357 10 12 17 17 17 20 13
359 2 359 357 355 356 355 349 350 348 337 332 337 341 347 1 6 16 17 19 23 19
5 6 3 358 358 359 356 352 352 353 350 342 345 351 348 349 356 3 11 15 18 26
10 11 6 2 1 2 359 358 356 358 1 360 356 6 0 347 347 351 1 6 13 16
15 14 10 7 6 6 6 6 5 4 7 9 1 14 7 347 343 344 349 358 4 14
19 18 15 12 11 13 14 13 14 11 9 9 9 24 11 359 352 347 349 348 0 4
27 22 20 19 19 21 22 22 21 18 13 11 13 30 11 360 356 348 348 341 1 360
34 25 28 23 24 28 30 31 29 26 23 20 17 22 10 4 355 347 345 339 357 1
52 28 33 31 30 29 32 34 35 33 29 27 22 20 13 10 354 350 344 337 342 1